| time (UTC) | temp C | wind direction | speed KPH | gust KPH | rain 1hr cm | rain 24hr cm | rain mn cm | humidity % | barometer mb |
| 20260505040021 | 7 | 0.0 | 1.6 | 0.00 | 0.00 | 0.00 | 52 | 1011.7 | |
| 20260505035021 | 8 | 255 | 3.2 | 6.4 | 0.00 | 0.00 | 0.00 | 51 | 1011.7 |
| 20260505034039 | 8 | 234 | 9.7 | 11.3 | 0.00 | 0.00 | 0.00 | 50 | 1011.5 |
| 20260505033018 | 9 | 230 | 9.7 | 11.3 | 0.00 | 0.00 | 0.00 | 49 | 1011.4 |
| 20260505032017 | 10 | 219 | 8.0 | 11.3 | 0.00 | 0.00 | 0.00 | 46 | 1011.3 |
| 20260505031015 | 10 | 244 | 14.5 | 16.1 | 0.00 | 0.00 | 0.00 | 44 | 1011.1 |
| 20260505030032 | 10 | 240 | 14.5 | 17.7 | 0.00 | 0.00 | 0.00 | 44 | 1011.0 |
| 20260505025020 | 11 | 237 | 17.7 | 24.1 | 0.00 | 0.00 | 0.00 | 43 | 1010.7 |
| 20260505024024 | 11 | 239 | 14.5 | 16.1 | 0.00 | 0.00 | 0.00 | 43 | 1010.4 |
| 20260505023029 | 11 | 267 | 8.0 | 9.7 | 0.00 | 0.00 | 0.00 | 41 | 1010.3 |
| 20260505022015 | 12 | 282 | 9.7 | 12.9 | 0.00 | 0.00 | 0.00 | 41 | 1010.2 |
| 20260505021040 | 12 | 265 | 14.5 | 17.7 | 0.00 | 0.00 | 0.00 | 40 | 1010.1 |
| 20260505020045 | 13 | 261 | 12.9 | 14.5 | 0.00 | 0.00 | 0.00 | 38 | 1010.0 |
| 20260505015031 | 13 | 271 | 14.5 | 17.7 | 0.00 | 0.00 | 0.00 | 36 | 1010.0 |
| 20260505014018 | 15 | 279 | 20.9 | 29.0 | 0.00 | 0.00 | 0.00 | 31 | 1009.9 |
| 20260505013022 | 16 | 299 | 19.3 | 20.9 | 0.00 | 0.00 | 0.00 | 30 | 1009.8 |
| 20260505012026 | 16 | 289 | 11.3 | 14.5 | 0.00 | 0.00 | 0.00 | 30 | 1009.8 |
| 20260505011031 | 15 | 290 | 12.9 | 17.7 | 0.00 | 0.00 | 0.00 | 32 | 1009.8 |
| 20260505010018 | 16 | 304 | 14.5 | 19.3 | 0.00 | 0.00 | 0.00 | 30 | 1009.9 |
| 20260505005024 | 16 | 290 | 14.5 | 20.9 | 0.00 | 0.00 | 0.00 | 28 | 1009.9 |
| 20260505004027 | 18 | 280 | 12.9 | 17.7 | 0.00 | 0.00 | 0.00 | 23 | 1009.9 |
| 20260505003032 | 17 | 260 | 12.9 | 20.9 | 0.00 | 0.00 | 0.00 | 23 | 1010.0 |
| 20260505002019 | 18 | 270 | 16.1 | 20.9 | 0.00 | 0.00 | 0.00 | 22 | 1010.1 |
| 20260505001024 | 18 | 263 | 17.7 | 20.9 | 0.00 | 0.00 | 0.00 | 23 | 1010.1 |
| 20260505000028 | 19 | 265 | 19.3 | 24.1 | 0.00 | 0.00 | 0.00 | 22 | 1010.0 |
| 20260504235036 | 20 | 262 | 20.9 | 29.0 | 0.00 | 0.00 | 0.00 | 21 | 1010.0 |
| 20260504234020 | 20 | 248 | 24.1 | 27.4 | 0.00 | 0.00 | 0.00 | 21 | 1010.0 |
| 20260504233025 | 20 | 252 | 17.7 | 30.6 | 0.00 | 0.00 | 0.00 | 20 | 1009.9 |
| 20260504232030 | 20 | 267 | 16.1 | 19.3 | 0.00 | 0.00 | 0.00 | 19 | 1009.9 |
| 20260504231016 | 20 | 270 | 20.9 | 27.4 | 0.00 | 0.00 | 0.00 | 21 | 1009.9 |
| 20260504230021 | 18 | 269 | 16.1 | 24.1 | 0.00 | 0.00 | 0.00 | 22 | 1010.1 |
| 20260504225027 | 20 | 250 | 22.5 | 27.4 | 0.00 | 0.00 | 0.00 | 20 | 1010.1 |
| 20260504224051 | 21 | 253 | 17.7 | 24.1 | 0.00 | 0.00 | 0.00 | 21 | 1010.1 |
| 20260504223039 | 19 | 220 | 12.9 | 16.1 | 0.00 | 0.00 | 0.00 | 23 | 1010.4 |
| 20260504222022 | 19 | 258 | 19.3 | 27.4 | 0.00 | 0.00 | 0.00 | 22 | 1010.5 |
| 20260504221027 | 18 | 263 | 17.7 | 20.9 | 0.00 | 0.00 | 0.00 | 24 | 1010.7 |
| 20260504220032 | 18 | 260 | 20.9 | 25.7 | 0.00 | 0.00 | 0.00 | 22 | 1010.7 |
| 20260504215019 | 19 | 265 | 20.9 | 29.0 | 0.00 | 0.00 | 0.00 | 22 | 1010.7 |
| 20260504214023 | 21 | 246 | 20.9 | 30.6 | 0.00 | 0.00 | 0.00 | 19 | 1011.0 |
| 20260504213028 | 21 | 286 | 14.5 | 20.9 | 0.00 | 0.00 | 0.00 | 19 | 1011.1 |
| 20260504212036 | 22 | 254 | 14.5 | 22.5 | 0.00 | 0.00 | 0.00 | 19 | 1011.2 |
| 20260504211020 | 22 | 288 | 6.4 | 11.3 | 0.00 | 0.00 | 0.00 | 19 | 1011.3 |
| 20260504210046 | 21 | 297 | 12.9 | 19.3 | 0.00 | 0.00 | 0.00 | 20 | 1011.3 |
| 20260504205030 | 20 | 245 | 14.5 | 19.3 | 0.00 | 0.00 | 0.00 | 20 | 1011.3 |
| 20260504204016 | 21 | 280 | 20.9 | 25.7 | 0.00 | 0.00 | 0.00 | 21 | 1011.5 |
| 20260504203022 | 20 | 264 | 22.5 | 32.2 | 0.00 | 0.00 | 0.00 | 21 | 1011.5 |
| 20260504202025 | 21 | 246 | 17.7 | 25.7 | 0.00 | 0.00 | 0.00 | 20 | 1011.6 |
| 20260504201045 | 20 | 251 | 17.7 | 20.9 | 0.00 | 0.00 | 0.00 | 20 | 1011.7 |
| 20260504200057 | 20 | 242 | 12.9 | 20.9 | 0.00 | 0.00 | 0.00 | 20 | 1011.9 |
| 20260504195042 | 21 | 230 | 6.4 | 12.9 | 0.00 | 0.00 | 0.00 | 19 | 1012.0 |
| 20260504194022 | 21 | 249 | 9.7 | 19.3 | 0.00 | 0.00 | 0.00 | 19 | 1012.1 |
| 20260504193020 | 20 | 232 | 4.8 | 11.3 | 0.00 | 0.00 | 0.00 | 19 | 1012.2 |
| 20260504192019 | 21 | 286 | 16.1 | 22.5 | 0.00 | 0.00 | 0.00 | 19 | 1012.4 |
| 20260504191017 | 21 | 256 | 16.1 | 25.7 | 0.00 | 0.00 | 0.00 | 20 | 1012.5 |
| 20260504190017 | 20 | 209 | 8.0 | 14.5 | 0.00 | 0.00 | 0.00 | 20 | 1012.7 |
| 20260504185015 | 20 | 239 | 8.0 | 14.5 | 0.00 | 0.00 | 0.00 | 20 | 1012.9 |
| 20260504184019 | 19 | 220 | 11.3 | 16.1 | 0.00 | 0.00 | 0.00 | 21 | 1013.0 |
| 20260504183024 | 19 | 219 | 11.3 | 17.7 | 0.00 | 0.00 | 0.00 | 21 | 1013.1 |
| 20260504182029 | 20 | 253 | 17.7 | 24.1 | 0.00 | 0.00 | 0.00 | 21 | 1013.2 |
| 20260504181017 | 19 | 166 | 9.7 | 14.5 | 0.00 | 0.00 | 0.00 | 23 | 1013.2 |
| 20260504180115 | 19 | 253 | 12.9 | 17.7 | 0.00 | 0.00 | 0.00 | 22 | 1013.3 |
| 20260504175046 | 18 | 241 | 14.5 | 24.1 | 0.00 | 0.00 | 0.00 | 23 | 1013.5 |
| 20260504174030 | 19 | 260 | 14.5 | 20.9 | 0.00 | 0.00 | 0.00 | 23 | 1013.6 |
| 20260504173017 | 18 | 230 | 14.5 | 20.9 | 0.00 | 0.00 | 0.00 | 23 | 1013.6 |
| 20260504172022 | 18 | 248 | 12.9 | 17.7 | 0.00 | 0.00 | 0.00 | 24 | 1013.6 |
| 20260504171027 | 18 | 253 | 14.5 | 19.3 | 0.00 | 0.00 | 0.00 | 25 | 1013.6 |
| 20260504151051 | 16 | 0.0 | 0.0 | 0.00 | 0.00 | 0.00 | 34 | 1014.2 | |
| 20260504141024 | 6 | 313 | 3.2 | 6.4 | 0.00 | 0.00 | 0.00 | 53 | 1015.0 |
| 20260504081016 | 1 | 85 | 4.8 | 4.8 | 0.00 | 0.00 | 0.00 | 75 | 1015.2 |
| 20260504050017 | 6 | 0.0 | 0.0 | 0.00 | 0.00 | 0.00 | 51 | 1015.8 | |
| 20260504045022 | 6 | 0.0 | 0.0 | 0.00 | 0.00 | 0.00 | 52 | 1016.0 | |
| 20260504044026 | 6 | 128 | 4.8 | 8.0 | 0.00 | 0.00 | 0.00 | 51 | 1016.0 |
| 20260504043030 | 6 | 0.0 | 0.0 | 0.00 | 0.00 | 0.00 | 50 | 1016.0 | |
| 20260504042017 | 6 | 113 | 1.6 | 6.4 | 0.00 | 0.00 | 0.00 | 49 | 1016.0 |
| 20260504041022 | 6 | 114 | 3.2 | 6.4 | 0.00 | 0.00 | 0.00 | 48 | 1016.0 |